• Join FlightAware (Why Join?)
  • Login
  • US Flag 
03:48PM EDT


 

Airport Tracker/Info


-or-


 

Live Flight TrackerFlight Track Log ✈ CPT1940 ✈ 20-Aug-2013 ✈ KBFF - KCPR

Flight Track Log - Related Links

Times and Time Zones

All times are in EDT time to prevent confusion due to time zone crossing. See the CPT1940 flight status page for this flight to view local times or setup timezone preferences in your user account.

Time Position Orientation Groundspeed Altitude Reporting Facility
EDT Latitude Longitude Course Direction KTS MPH feet Rate Location/Type
10:58AM 41.9425 -103.6694 312° West 122 140 7,400  Level Denver Center
10:59AM 41.9681 -103.7075 312° West 124 143 8,400 840 Climbing Denver Center
11:00AM 41.9869 -103.7447 304° West 124 143 9,200 720 Climbing Denver Center
11:01AM 42.0136 -103.7872 310° West 129 148 10,000 360 Climbing Denver Center
11:02AM 42.0397 -103.8275 311° West 140 161 10,000  Level Denver Center
11:03AM 42.0731 -103.8814 310° West 157 181 10,000  Level Denver Center
11:04AM 42.1017 -103.9267 310° West 163 188 10,000  Level Denver Center
11:05AM 42.1294 -103.9711 310° West 164 189 10,000  Level Denver Center
11:06AM 42.1608 -104.0236 309° West 162 186 10,000  Level Denver Center
11:07AM 42.1881 -104.0681 310° West 161 185 10,000  Level Denver Center
11:08AM 42.2203 -104.1200 310° West 161 185 10,000  Level Denver Center
11:09AM 42.2481 -104.1636 311° West 161 185 10,000  Level Denver Center
11:10AM 42.2797 -104.2150 310° West 160 184 10,000  Level Denver Center
11:11AM 42.3067 -104.2597 309° West 160 184 10,000  Level Denver Center
11:12AM 42.3383 -104.3117 310° West 161 185 10,000  Level Denver Center
11:13AM 42.3650 -104.3561 309° West 159 183 10,000  Level Denver Center
11:14AM 42.3967 -104.4081 310° West 160 184 10,000  Level Denver Center
11:15AM 42.4236 -104.4531 309° West 159 183 10,000  Level Denver Center
11:17AM 42.4550 -104.5050 309° West 160 184 10,000  Level Denver Center
11:18AM 42.4825 -104.5503 309° West 161 185 10,000  Level Denver Center
11:19AM 42.5147 -104.6033 309° West 161 185 10,000  Level Denver Center
11:20AM 42.5353 -104.6550 298° West 162 186 10,000 60 Level Denver Center
11:21AM 42.5525 -104.7097 293° West 162 186 10,200 60 Climbing Denver Center
11:22AM 42.5728 -104.7714 294° West 161 185 10,200  Level Denver Center
11:23AM 42.5903 -104.8236 294° West 160 184 10,200 -60 Level Denver Center
11:24AM 42.6103 -104.8850 294° West 159 183 10,100 -60 Descending Denver Center
11:25AM 42.6289 -104.9386 295° West 161 185 10,100  Level Denver Center
11:26AM 42.6489 -105.0006 294° West 161 185 10,100  Level Denver Center
11:27AM 42.6656 -105.0536 293° West 160 184 10,100  Level Denver Center
11:28AM 42.6858 -105.1147 294° West 160 184 10,100  Level Denver Center
11:29AM 42.7036 -105.1669 295° West 159 183 10,100  Level Denver Center
11:30AM 42.7200 -105.2197 293° West 159 183 10,100  Level Denver Center
11:31AM 42.7400 -105.2808 294° West 158 182 10,100  Level Denver Center
11:32AM 42.7575 -105.3331 295° West 158 182 10,100  Level Denver Center
11:33AM 42.7772 -105.3944 294° West 159 183 10,100  Level Denver Center
11:34AM 42.7936 -105.4478 293° West 159 183 10,100  Level Denver Center
11:35AM 42.8139 -105.5094 294° West 160 184 10,100  Level Denver Center
11:36AM 42.8311 -105.5636 293° West 161 185 10,100  Level Denver Center
11:37AM 42.8514 -105.6253 294° West 161 185 10,100  Level Denver Center
11:38AM 42.8683 -105.6783 294° West 160 184 10,100  Level Denver Center
11:39AM 42.8886 -105.7406 294° West 160 184 10,100  Level Denver Center
11:40AM 42.9058 -105.7942 294° West 161 185 10,100  Level Denver Center
11:41AM 42.9253 -105.8561 293° West 161 185 10,100  Level Denver Center
11:42AM 42.9258 -105.9147 271° West 159 183 10,100 -300 Level Denver Center
11:43AM 42.9206 -105.9861 264° West 165 190 9,500 -480 Descending Denver Center
11:44AM 42.9183 -106.0464 267° West 167 192 9,100 -480 Descending Denver Center
11:45AM 42.9158 -106.1142 267° West 163 188 8,500 -600 Descending Denver Center
11:47AM 42.9164 -106.1750 271° West 165 190 7,900 -600 Descending Denver Center
11:48AM 42.9169 -106.2433 271° West 164 189 7,300 -420 Descending Denver Center
11:49AM 42.9158 -106.3019 269° West 163 188 7,100 -240 Descending Denver Center
11:50AM 42.9236 -106.3656 280° West 157 181 6,900 -240 Descending Denver Center
11:52AM 42.9000 -106.4500 270° West  Level FlightAware Approximate
11:59AM 42.9080 -106.4644 270° West  Level Estimated
12:00PM 42.9080 -106.4644 270° West  Level Estimated